Le nostre stazioni meteo in Italia

Pubblicità
Il mio iltempo24.it
London/Heathrow Intl, Gran Bretagna (3772): Temperatura & dewpoint: 15.08.2019 13:00:00 - 21.08.2019 13:00:00 (BST)London/Heathrow Intl, Gran Bretagna (3772): velocità del vento & gusts: 15.08.2019 13:00:00 - 21.08.2019 13:00:00 (BST)London/Heathrow Intl, Gran Bretagna (3772): direzione del vento: 15.08.2019 13:00:00 - 21.08.2019 13:00:00 (BST)London/Heathrow Intl, Gran Bretagna (3772): reduced air pressure: 15.08.2019 13:00:00 - 21.08.2019 13:00:00 (BST)London/Heathrow Intl, Gran Bretagna (3772): visibility: 15.08.2019 13:00:00 - 21.08.2019 13:00:00 (BST)London/Heathrow Intl, Gran Bretagna (3772): ore di luce: 15.08.2019 13:00:00 - 21.08.2019 13:00:00 (BST)London/Heathrow Intl, Gran Bretagna (3772): precipitazioni: 15.08.2019 13:00:00 - 21.08.2019 13:00:00 (BST)
Data & Tempo tt [°C] td [°C] ff [km/h] ff [kn] fx [km/h] fx [kn] dd ppp [hPa] vv [km] sd [min] rr [mm]
21.08.2019 13:00:00 22,4 10,3 18 10 - - SSO 1026,7 10 42 0,0
21.08.2019 12:00:00 20,9 11,3 15 8 - - SSO 1027,3 18 54 0,0
21.08.2019 11:00:00 19,1 10,1 15 8 - - SSO 1027,6 10 54 0,0
21.08.2019 10:00:00 17,6 12,0 9 5 - - SSO 1027,7 10 6 0,0
21.08.2019 09:00:00 16,2 11,6 8 4 - - SSO 1028,0 10 60 0,0
21.08.2019 08:00:00 13,9 10,6 5 3 - - S 1027,8 24 54 0,0
21.08.2019 07:00:00 12,2 10,0 8 4 - - SSO 1027,5 10 0 0,0
21.08.2019 06:00:00 11,2 9,5 8 4 - - S 1027,3 10 0 0,0
21.08.2019 05:00:00 11,0 8,9 4 2 - - - 1027,2 10 0 0,0
21.08.2019 04:00:00 11,0 8,4 5 3 - - SO 1027,0 10 0 0,0
21.08.2019 03:00:00 12,0 8,7 5 3 - - SO 1027,0 10 0 0,0
21.08.2019 02:00:00 13,1 9,1 5 3 - - SO 1026,9 10 0 0,0
21.08.2019 01:00:00 13,9 8,7 4 2 - - - 1026,9 10 - 0,0
21.08.2019 00:00:00 14,6 8,4 11 6 - - O 1026,8 10 0 0,0
20.08.2019 23:00:00 16,0 8,3 18 10 - - O 1026,6 10 0 0,0
20.08.2019 22:00:00 16,9 8,0 16 9 - - O 1026,3 10 0 0,0
20.08.2019 21:00:00 17,2 7,1 16 9 - - O 1026,0 10 0 0,0
20.08.2019 20:00:00 18,2 6,3 11 6 - - O 1025,4 10 6 0,0
20.08.2019 19:00:00 19,5 6,1 16 9 - - O 1024,9 10 54 0,0
20.08.2019 18:00:00 20,6 5,9 22 12 - - O 1024,3 10 54 0,0
20.08.2019 17:00:00 21,0 5,5 22 12 - - O 1023,9 10 54 0,0
20.08.2019 16:00:00 21,9 5,1 22 12 - - OSO 1023,6 45 48 0,0
20.08.2019 15:00:00 22,2 6,0 18 10 - - O 1023,4 10 54 0,0
20.08.2019 14:00:00 22,1 6,9 24 13 - - O 1023,1 10 54 0,0
20.08.2019 13:00:00 19,6 6,0 18 10 - - O 1023,1 10 42 0,0
20.08.2019 12:00:00 19,2 7,0 18 10 - - O 1022,9 10 36 0,0
20.08.2019 11:00:00 19,0 9,3 16 9 - - O 1022,8 10 54 0,0
20.08.2019 10:00:00 16,7 9,5 16 9 - - ONO 1022,7 10 60 0,0
20.08.2019 09:00:00 15,3 10,4 18 10 - - O 1022,1 10 60 0,0
20.08.2019 08:00:00 13,5 11,0 13 7 - - OSO 1021,5 10 18 0,0
20.08.2019 07:00:00 12,3 10,4 9 5 - - SO 1020,9 10 0 0,0
20.08.2019 06:00:00 11,2 9,5 9 5 - - S 1020,2 24 0 0,0
20.08.2019 05:00:00 11,2 9,3 9 5 - - OSO 1019,8 10 0 0,0
20.08.2019 04:00:00 11,9 9,8 9 5 - - SO 1019,5 10 0 0,0
20.08.2019 03:00:00 12,3 9,9 13 7 - - SO 1019,3 10 0 0,0
20.08.2019 02:00:00 12,9 10,0 11 6 - - OSO 1019,2 10 0 0,0
20.08.2019 01:00:00 13,3 9,9 13 7 - - OSO 1019,4 10 - 0,0
20.08.2019 00:00:00 14,3 9,8 18 10 - - OSO 1019,2 30 0 0,0
19.08.2019 23:00:00 15,2 9,3 21 11 - - OSO 1018,7 10 0 0,0
19.08.2019 22:00:00 16,0 8,6 16 9 - - O 1018,3 10 0 0,0
19.08.2019 21:00:00 16,5 7,4 15 8 - - OSO 1017,7 40 0 0,0
19.08.2019 20:00:00 17,9 6,5 21 11 - - O 1016,8 40 42 0,0
19.08.2019 19:00:00 19,6 7,2 28 15 48 26 O 1016,2 10 60 0,0
19.08.2019 18:00:00 20,6 6,5 34 18 52 28 O 1015,6 40 54 0,0
19.08.2019 17:00:00 21,1 8,6 29 16 52 28 OSO 1015,2 10 36 0,0
19.08.2019 16:00:00 21,6 8,8 29 16 48 26 O 1015,0 10 54 0,0
19.08.2019 15:00:00 21,8 10,1 29 16 - - O 1014,6 10 42 0,0
19.08.2019 14:00:00 18,7 10,3 24 13 - - OSO 1014,6 10 30 0,0
19.08.2019 13:00:00 18,6 11,4 24 13 - - OSO 1014,1 10 24 0,6
19.08.2019 12:00:00 19,6 10,7 18 10 - - OSO 1013,9 40 30 0,0
19.08.2019 11:00:00 18,6 12,6 22 12 - - OSO 1013,6 10 24 0,0
19.08.2019 10:00:00 17,3 12,9 22 12 - - OSO 1013,4 10 24 0,0
19.08.2019 09:00:00 15,8 13,0 22 12 - - SO 1012,7 10 18 0,2
19.08.2019 08:00:00 14,0 12,3 18 10 - - SO 1012,5 8 6 0,4
19.08.2019 07:00:00 14,0 11,6 16 9 - - SO 1012,1 10 0 0,0
19.08.2019 06:00:00 13,4 11,4 15 8 - - OSO 1011,6 10 0 0,0
19.08.2019 05:00:00 13,1 11,4 13 7 - - SO 1011,3 10 0 0,0
19.08.2019 04:00:00 12,2 10,8 9 5 - - SO 1010,9 10 0 0,0
19.08.2019 03:00:00 13,2 11,3 15 8 - - SO 1010,7 10 0 0,0
19.08.2019 02:00:00 13,2 11,3 16 9 - - SO 1010,4 10 0 0,0
19.08.2019 01:00:00 13,5 11,2 16 9 - - OSO 1010,2 10 - 0,0
19.08.2019 00:00:00 13,6 12,1 13 7 - - SO 1009,9 10 0 0,0
18.08.2019 23:00:00 14,3 12,7 16 9 - - SO 1009,5 10 0 0,0
18.08.2019 22:00:00 14,7 12,5 18 10 - - SO 1008,9 10 0 0,0
18.08.2019 21:00:00 15,2 12,7 21 11 - - SO 1008,3 10 0 0,0
18.08.2019 20:00:00 14,9 13,0 21 11 - - OSO 1007,7 30 0 2,4
18.08.2019 19:00:00 19,0 11,2 28 15 - - OSO 1006,8 10 24 0,0
18.08.2019 18:00:00 19,8 10,6 28 15 - - SO 1006,7 50 6 0,0
18.08.2019 17:00:00 22,2 9,6 24 13 - - O 1006,2 50 42 0,0
18.08.2019 16:00:00 21,4 10,8 29 16 - - O 1005,9 10 24 0,0
18.08.2019 15:00:00 21,7 11,5 26 14 - - O 1005,4 10 12 0,0
18.08.2019 14:00:00 20,3 12,0 21 11 - - O 1005,1 50 24 0,0
18.08.2019 13:00:00 19,7 12,0 24 13 - - OSO 1004,8 50 48 0,0
18.08.2019 12:00:00 18,1 13,6 16 9 - - OSO 1004,9 40 36 0,0
18.08.2019 11:00:00 15,2 14,0 16 9 - - OSO 1004,9 10 0 1,8
18.08.2019 10:00:00 15,0 13,1 18 10 - - OSO 1004,5 8 0 1,0
18.08.2019 09:00:00 16,4 12,6 16 9 - - SO 1003,4 10 6 0,0
18.08.2019 08:00:00 16,0 12,9 13 7 - - SO 1002,9 26 0 0,0
18.08.2019 07:00:00 15,4 13,4 11 6 - - SSO 1002,9 10 0 0,0
18.08.2019 06:00:00 14,7 13,1 9 5 - - SSO 1003,0 10 0 0,0
18.08.2019 05:00:00 15,2 13,0 13 7 - - SSO 1003,3 10 0 0,0
18.08.2019 04:00:00 15,4 12,4 15 8 - - SSO 1003,8 10 0 0,0
18.08.2019 03:00:00 15,5 12,1 13 7 - - SSO 1004,2 10 0 0,0
18.08.2019 02:00:00 15,6 12,5 13 7 - - SSO 1004,6 22 0 0,0
18.08.2019 01:00:00 15,9 12,7 13 7 - - SO 1005,0 10 - 0,0
18.08.2019 00:00:00 16,1 12,9 15 8 - - SO 1004,7 10 0 0,0
17.08.2019 23:00:00 16,4 12,8 16 9 - - SO 1005,4 10 0 0,0
17.08.2019 22:00:00 17,2 12,5 18 10 - - SO 1005,6 10 0 0,0
17.08.2019 21:00:00 17,7 12,9 21 11 - - SSO 1005,2 24 0 0,0
17.08.2019 20:00:00 18,7 12,5 24 13 - - SO 1004,9 10 0 0,0
17.08.2019 19:00:00 19,9 14,0 22 12 - - SSO 1004,9 20 30 0,0
17.08.2019 18:00:00 21,4 11,3 21 11 - - OSO 1004,7 10 0 0,0
17.08.2019 17:00:00 21,9 10,7 21 11 - - SO 1004,7 45 18 0,0
17.08.2019 16:00:00 22,9 11,5 22 12 - - OSO 1004,9 10 54 0,0
17.08.2019 15:00:00 21,8 12,6 21 11 - - O 1004,9 10 24 0,0
17.08.2019 14:00:00 22,9 11,8 28 15 - - OSO 1004,7 10 60 0,0
17.08.2019 13:00:00 20,9 12,6 26 14 - - SO 1005,1 35 36 0,0
17.08.2019 12:00:00 19,5 13,2 26 14 - - OSO 1005,2 30 6 0,0
17.08.2019 11:00:00 19,3 13,3 28 15 - - OSO 1005,3 10 42 0,0
17.08.2019 10:00:00 18,8 14,2 24 13 - - SO 1004,8 10 54 0,0
17.08.2019 09:00:00 17,8 13,8 22 12 - - SO 1005,1 10 60 0,0
17.08.2019 08:00:00 16,2 13,8 22 12 - - OSO 1005,4 10 60 0,0
17.08.2019 07:00:00 15,6 14,0 16 9 - - SO 1004,4 10 6 0,0
17.08.2019 06:00:00 15,2 14,0 13 7 - - OSO 1003,2 10 0 0,0
17.08.2019 05:00:00 16,4 14,6 21 11 - - OSO 1003,1 10 0 0,2
17.08.2019 04:00:00 17,5 16,8 18 10 - - SSO 1003,3 50 0 0,0
17.08.2019 03:00:00 17,5 17,0 15 8 - - SSO 1003,2 55 0 0,0
17.08.2019 02:00:00 17,4 16,9 15 8 - - SO 1003,4 10 0 0,2
17.08.2019 01:00:00 17,1 16,6 16 9 - - SSO 1003,3 7 - 0,0
17.08.2019 00:00:00 17,0 16,3 18 10 - - SSO 1003,7 10 0 0,2
16.08.2019 23:00:00 16,6 16,2 24 13 - - SSO 1004,3 10 0 2,0
16.08.2019 22:00:00 16,6 15,9 26 14 - - SSO 1004,8 5 0 0,2
16.08.2019 21:00:00 16,6 15,7 26 14 46 25 SSO 1005,2 9 0 0,4
16.08.2019 20:00:00 16,6 15,4 26 14 50 27 S 1005,7 1,5 0 0,4
16.08.2019 19:00:00 16,7 15,1 28 15 - - SSO 1006,7 10 0 0,6
16.08.2019 18:00:00 16,5 15,1 28 15 - - S 1007,6 10 0 0,4
16.08.2019 17:00:00 16,8 14,9 22 12 - - SSO 1008,7 10 0 0,2
16.08.2019 16:00:00 16,7 14,6 22 12 - - S 1009,7 24 0 0,0
16.08.2019 15:00:00 17,3 13,7 22 12 - - SSO 1010,2 10 0 0,2
16.08.2019 14:00:00 16,9 14,0 22 12 - - SSO 1010,9 28 0 0,6
16.08.2019 13:00:00 17,5 13,1 28 15 - - SSO 1011,4 10 0 0,0
16.08.2019 12:00:00 18,9 11,2 28 15 46 25 SSO 1012,0 10 0 0,0
16.08.2019 11:00:00 18,7 12,2 26 14 - - SO 1012,8 10 0 0,0
16.08.2019 10:00:00 17,9 13,7 21 11 - - SSO 1013,3 10 0 0,0
16.08.2019 09:00:00 16,9 13,8 18 10 - - SSO 1014,2 10 0 0,0
16.08.2019 08:00:00 16,1 14,0 13 7 - - SSO 1014,4 10 0 0,0
16.08.2019 07:00:00 14,4 12,4 15 8 - - SSO 1014,8 10 0 0,0
16.08.2019 06:00:00 13,5 11,6 11 6 - - SSO 1015,6 35 0 0,0
16.08.2019 05:00:00 13,3 11,7 8 4 - - S 1015,8 35 0 0,0
16.08.2019 04:00:00 12,9 11,8 5 3 - - SSO 1016,4 10 0 0,0
16.08.2019 03:00:00 13,0 11,8 9 5 - - S 1016,7 27 0 0,0
16.08.2019 02:00:00 14,0 11,9 9 5 - - SSO 1017,0 10 0 0,0
16.08.2019 01:00:00 13,9 11,6 9 5 - - OSO 1017,2 10 - 0,0
16.08.2019 00:00:00 14,8 11,9 9 5 - - OSO 1017,3 23 0 0,0
15.08.2019 23:00:00 15,0 9,8 11 6 - - OSO 1017,3 40 0 0,0
15.08.2019 22:00:00 17,3 9,8 11 6 - - ONO 1017,2 10 0 0,0
15.08.2019 21:00:00 18,2 9,5 8 4 - - ONO 1016,4 10 0 0,0
15.08.2019 20:00:00 19,7 9,3 11 6 - - ONO 1016,2 10 36 0,0
15.08.2019 19:00:00 20,3 8,7 28 15 - - O 1015,7 10 0 0,0
15.08.2019 18:00:00 21,0 9,1 24 13 - - ONO 1014,9 10 24 0,0
15.08.2019 17:00:00 22,3 8,1 26 14 - - O 1014,0 10 42 0,0
15.08.2019 16:00:00 22,8 9,5 28 15 - - O 1013,7 10 36 0,0
15.08.2019 15:00:00 23,1 9,6 29 16 48 26 O 1013,3 10 60 0,0
15.08.2019 14:00:00 21,9 10,0 28 15 - - O 1012,9 10 42 0,0
15.08.2019 13:00:00 20,6 10,7 24 13 - - O 1012,4 10 12 0,0

tt = Temperatura
td = dewpoint
ff = velocità del vento
fx = gusts
dd = direzione del vento
ppp = reduced air pressure
vv = visibility
sd = ore di luce
rr = precipitazioni

Stazioni seguenti

WeatherPro
AMSI
MeteoEarth